When you browse on this site, cookies collect data to enhance your experience and personalize the content and advertising you see.
Visit our Privacy Policy to learn more. By continuing to use the site, you agree to this use of cookies and data.
  • en Suisse
  • Liste des pays
  • À 7 jours
  • Température de l'eau
  • Carte satellitaire
  • Carte météo
  • Widgets météo
  • user-avatar
    Se connecter

    Météo par heure à Kuzaj

    Ce jour, 22 Juillet, Lundi

    Heure Température Précipitation Vent Pression Humidité
    00:00 +18°C° 0 mm 2 m/s 752 mmHg 78%
    01:00 +18°C° 0 mm 2 m/s 752 mmHg 82%
    02:00 +17°C° 0 mm 2 m/s 752 mmHg 85%
    03:00 +17°C° 0 mm 2 m/s 752 mmHg 87%
    04:00 +18°C° 0 mm 1 m/s 752 mmHg 89%
    05:00 +19°C° 0 mm 1 m/s 753 mmHg 84%
    06:00 +20°C° 0 mm 1 m/s 753 mmHg 79%
    07:00 +21°C° 0 mm 1 m/s 753 mmHg 75%
    08:00 +21°C° 0.1 mm 2 m/s 753 mmHg 69%
    09:00 +24°C° 0.1 mm 2 m/s 753 mmHg 63%
    10:00 +25°C° 0.1 mm 3 m/s 753 mmHg 57%
    11:00 +25°C° 0.4 mm 3 m/s 753 mmHg 57%
    12:00 +25°C° 0.4 mm 3 m/s 753 mmHg 58%
    13:00 +25°C° 0.4 mm 4 m/s 752 mmHg 59%
    14:00 +25°C° 0.1 mm 4 m/s 752 mmHg 57%
    15:00 +26°C° 0.1 mm 4 m/s 752 mmHg 56%
    16:00 +26°C° 0.1 mm 4 m/s 752 mmHg 54%
    17:00 +25°C° 0 mm 4 m/s 752 mmHg 59%
    18:00 +24°C° 0 mm 3 m/s 752 mmHg 64%
    19:00 +23°C° 0 mm 2 m/s 752 mmHg 69%
    20:00 +21°C° 0 mm 2 m/s 752 mmHg 69%
    21:00 +20°C° 0 mm 2 m/s 752 mmHg 70%
    22:00 +19°C° 0 mm 2 m/s 752 mmHg 70%
    23:00 +20°C° 0 mm 1 m/s 752 mmHg 69%

    Demain, 23 Juillet, Mardi

    Heure Température Précipitation Vent Pression Humidité
    00:00 +20°C° 0 mm 1 m/s 752 mmHg 67%
    01:00 +20°C° 0 mm 1 m/s 752 mmHg 66%
    02:00 +20°C° 0 mm 1 m/s 752 mmHg 71%
    03:00 +18°C° 0 mm 2 m/s 752 mmHg 75%
    04:00 +18°C° 0 mm 3 m/s 752 mmHg 80%
    05:00 +17°C° 0.1 mm 3 m/s 752 mmHg 82%
    06:00 +17°C° 0.1 mm 2 m/s 752 mmHg 84%
    07:00 +16°C° 0.1 mm 2 m/s 752 mmHg 86%
    08:00 +17°C° 0 mm 2 m/s 752 mmHg 85%
    09:00 +18°C° 0 mm 1 m/s 752 mmHg 84%
    10:00 +18°C° 0 mm 1 m/s 752 mmHg 83%
    11:00 +19°C° 0 mm 1 m/s 752 mmHg 80%
    12:00 +20°C° 0 mm 1 m/s 752 mmHg 78%
    13:00 +21°C° 0 mm 1 m/s 752 mmHg 75%
    14:00 +22°C° 0 mm 1 m/s 751 mmHg 75%
    15:00 +22°C° 0 mm 1 m/s 751 mmHg 74%
    16:00 +22°C° 0 mm 1 m/s 751 mmHg 74%
    17:00 +22°C° 0 mm 1 m/s 751 mmHg 77%
    18:00 +22°C° 0 mm 1 m/s 751 mmHg 80%
    19:00 +21°C° 0 mm 1 m/s 750 mmHg 82%
    20:00 +21°C° 0 mm 1 m/s 751 mmHg 84%
    21:00 +20°C° 0 mm 1 m/s 751 mmHg 86%
    22:00 +19°C° 0 mm 1 m/s 751 mmHg 87%
    23:00 +20°C° 0 mm 1 m/s 751 mmHg 86%

    Après-demain, 24 Juillet, Mercredi

    Heure Température Précipitation Vent Pression Humidité
    00:00 +20°C° 0 mm 1 m/s 751 mmHg 85%
    01:00 +20°C° 0 mm 1 m/s 751 mmHg 84%
    02:00 +20°C° 0 mm 1 m/s 750 mmHg 87%
    03:00 +19°C° 0 mm 1 m/s 750 mmHg 89%
    04:00 +19°C° 0 mm 1 m/s 750 mmHg 92%
    05:00 +20°C° 0 mm 1 m/s 750 mmHg 88%
    06:00 +20°C° 0 mm 2 m/s 750 mmHg 84%
    07:00 +21°C° 0 mm 2 m/s 750 mmHg 79%
    08:00 +24°C° 0 mm 2 m/s 750 mmHg 73%
    09:00 +25°C° 0 mm 3 m/s 750 mmHg 67%
    10:00 +26°C° 0 mm 3 m/s 750 mmHg 60%
    11:00 +27°C° 0 mm 3 m/s 750 mmHg 58%
    12:00 +27°C° 0 mm 3 m/s 750 mmHg 56%
    13:00 +28°C° 0 mm 3 m/s 750 mmHg 53%
    14:00 +28°C° 0 mm 3 m/s 750 mmHg 53%
    15:00 +28°C° 0 mm 3 m/s 750 mmHg 53%
    16:00 +28°C° 0 mm 3 m/s 750 mmHg 53%
    17:00 +27°C° 0 mm 2 m/s 750 mmHg 58%
    18:00 +26°C° 0 mm 2 m/s 750 mmHg 63%
    19:00 +25°C° 0 mm 1 m/s 750 mmHg 68%
    20:00 +24°C° 0 mm 1 m/s 750 mmHg 70%
    21:00 +23°C° 0 mm 1 m/s 750 mmHg 72%
    22:00 +22°C° 0 mm 1 m/s 751 mmHg 74%
    23:00 +22°C° 0 mm 1 m/s 751 mmHg 76%

    25 Juillet, Jeudi

    Heure Température Précipitation Vent Pression Humidité
    00:00 +21°C° 0 mm 1 m/s 751 mmHg 77%
    01:00 +21°C° 0 mm 1 m/s 751 mmHg 78%
    02:00 +18°C° 0 mm 0 m/s 751 mmHg 80%
    03:00 +18°C° 0 mm 0 m/s 751 mmHg 81%
    04:00 +18°C° 0 mm 0 m/s 751 mmHg 83%
    05:00 +19°C° 0 mm 0 m/s 751 mmHg 78%
    06:00 +21°C° 0 mm 0 m/s 751 mmHg 72%
    07:00 +22°C° 0 mm 0 m/s 751 mmHg 67%
    08:00 +26°C° 0 mm 1 m/s 751 mmHg 63%
    09:00 +27°C° 0 mm 1 m/s 751 mmHg 60%
    10:00 +28°C° 0 mm 2 m/s 751 mmHg 56%
    11:00 +28°C° 0 mm 2 m/s 751 mmHg 54%
    12:00 +29°C° 0 mm 2 m/s 751 mmHg 52%
    13:00 +29°C° 0 mm 2 m/s 751 mmHg 50%
    14:00 +29°C° 0 mm 2 m/s 751 mmHg 49%
    15:00 +29°C° 0 mm 2 m/s 750 mmHg 48%
    16:00 +29°C° 0 mm 2 m/s 750 mmHg 48%
    17:00 +28°C° 0 mm 2 m/s 750 mmHg 52%
    18:00 +27°C° 0 mm 2 m/s 750 mmHg 56%
    19:00 +26°C° 0 mm 2 m/s 750 mmHg 60%
    20:00 +25°C° 0 mm 3 m/s 750 mmHg 63%
    21:00 +24°C° 0 mm 3 m/s 751 mmHg 65%
    22:00 +22°C° 0 mm 3 m/s 751 mmHg 67%
    23:00 +22°C° 0 mm 3 m/s 751 mmHg 70%

    26 Juillet, Vendredi

    Heure Température Précipitation Vent Pression Humidité
    00:00 +21°C° 0 mm 3 m/s 751 mmHg 73%
    01:00 +20°C° 0 mm 3 m/s 751 mmHg 76%
    02:00 +20°C° 0 mm 3 m/s 751 mmHg 77%
    03:00 +19°C° 0 mm 3 m/s 750 mmHg 79%
    04:00 +19°C° 0 mm 3 m/s 750 mmHg 81%
    05:00 +20°C° 0 mm 4 m/s 750 mmHg 77%
    06:00 +21°C° 0 mm 4 m/s 750 mmHg 72%
    07:00 +23°C° 0 mm 4 m/s 750 mmHg 68%
    08:00 +25°C° 0 mm 5 m/s 750 mmHg 62%
    09:00 +27°C° 0 mm 5 m/s 750 mmHg 55%
    10:00 +28°C° 0 mm 6 m/s 750 mmHg 49%
    11:00 +29°C° 0 mm 6 m/s 749 mmHg 48%
    12:00 +30°C° 0 mm 6 m/s 749 mmHg 48%
    13:00 +30°C° 0 mm 6 m/s 749 mmHg 47%
    14:00 +30°C° 0 mm 6 m/s 748 mmHg 47%
    15:00 +30°C° 0 mm 6 m/s 748 mmHg 48%
    16:00 +32°C° 0 mm 6 m/s 748 mmHg 48%
    17:00 +29°C° 0 mm 5 m/s 747 mmHg 53%
    18:00 +28°C° 0 mm 4 m/s 747 mmHg 58%
    19:00 +27°C° 0 mm 4 m/s 747 mmHg 64%
    20:00 +26°C° 0 mm 4 m/s 747 mmHg 67%
    21:00 +25°C° 0 mm 4 m/s 747 mmHg 70%
    22:00 +23°C° 0 mm 4 m/s 747 mmHg 73%
    23:00 +22°C° 0 mm 4 m/s 747 mmHg 75%

    27 Juillet, Samedi

    Heure Température Précipitation Vent Pression Humidité
    00:00 +22°C° 0 mm 4 m/s 747 mmHg 78%
    01:00 +21°C° 0 mm 4 m/s 747 mmHg 80%
    02:00 +21°C° 0 mm 4 m/s 747 mmHg 82%
    03:00 +20°C° 0 mm 4 m/s 746 mmHg 84%
    04:00 +20°C° 0 mm 5 m/s 746 mmHg 86%
    05:00 +21°C° 0 mm 5 m/s 746 mmHg 80%
    06:00 +22°C° 0 mm 5 m/s 746 mmHg 75%
    07:00 +24°C° 0 mm 6 m/s 746 mmHg 69%
    08:00 +26°C° 0 mm 6 m/s 746 mmHg 63%
    09:00 +28°C° 0 mm 6 m/s 746 mmHg 57%
    10:00 +29°C° 0 mm 6 m/s 746 mmHg 51%
    11:00 +30°C° 0 mm 6 m/s 745 mmHg 48%
    12:00 +32°C° 0 mm 6 m/s 745 mmHg 45%
    13:00 +33°C° 0 mm 6 m/s 744 mmHg 42%
    14:00 +33°C° 0 mm 6 m/s 744 mmHg 43%
    15:00 +33°C° 0 mm 6 m/s 743 mmHg 44%
    16:00 +33°C° 0 mm 6 m/s 743 mmHg 44%
    17:00 +30°C° 0 mm 6 m/s 743 mmHg 49%
    18:00 +29°C° 0 mm 5 m/s 743 mmHg 54%
    19:00 +28°C° 0 mm 5 m/s 743 mmHg 59%
    20:00 +26°C° 0.3 mm 5 m/s 743 mmHg 64%
    21:00 +25°C° 0.3 mm 5 m/s 743 mmHg 69%
    22:00 +23°C° 0.3 mm 5 m/s 743 mmHg 74%
    23:00 +22°C° 0.3 mm 4 m/s 743 mmHg 78%
    Voir plus